Flag for Brazil Weather past 2 weeks in Rio Grande, Rio Grande do Sul, Brazil

Now
61 °F

Clear.


Feels Like: 61 °F
Forecast: 63 / 77 °F
Wind: 7 mph from Northeast

Location: Pelotas Airport

Current Time: Oct 23, 2014 at 1:49:38 AM

Latest Report: Oct 23, 2014 at 1:00 AM


Visibility: 10 mi

Pressure: 30.12 "Hg

Humidity: 100%

Dew point: 61 °F

Location of Rio GrandeLocation

Historic Weather in Rio Grande — Graph

°F

Rio Grande temperature yesterday

Maximum temperature yesterday: 75 °F (at 1:00 PM)
Minimum temperature yesterday: 52 °F (at 6:00 AM)
Average temperature yesterday: 65 °F

Past Weeks' High & Low Weather Summary

 TemperatureHumidityPressure
High79 °F (Oct 8, 12:00 PM)100% (Oct 8, 12:00 AM)30.24 "Hg (Oct 8, 12:00 AM)
Low52 °F (Oct 20, 7:00 AM)33% (Oct 14, 2:00 PM)29.65 "Hg (Oct 10, 12:00 AM)
Average64 °F90%29.99 "Hg
* Reported Oct 7 11:00 PM — Midnight between Oct 22 and Oct 23, Rio Grande, Weather by CustomWeather, © 2014

Note: Actual official high and low records may vary slightly from our data, if they occured in-between our weather recording intervals... More about our weather records

Advertising

Rio Grande weather history for previous 24 hours

 ConditionsComfort  
Time TempWeatherWind HumidityBarometerVisibility
12:00 AM
Oct 23
61 °FClear.7 mph100%30.12 "Hg10 mi
11:00 PM
Oct 22
61 °FClear.6 mph100%30.12 "Hg10 mi
10:00 PM64 °FClear.7 mph88%30.12 "Hg10 mi
9:00 PM64 °FClear.8 mph88%30.12 "Hg10 mi
8:00 PM68 °FClear.13 mph78%30.09 "Hg10 mi
7:00 PM72 °FSunny.13 mph57%30.09 "Hg10 mi
6:00 PM73 °FSunny.14 mph69%30.09 "Hg10 mi
5:00 PM75 °FSunny.15 mph65%30.09 "Hg10 mi
4:00 PM75 °FSunny.12 mph69%30.12 "Hg10 mi
3:00 PM75 °FSunny.13 mph65%30.12 "Hg10 mi
2:00 PM75 °FSunny.16 mph61%30.15 "Hg10 mi
1:00 PM75 °FSunny.14 mph61%30.15 "Hg10 mi
12:00 PM73 °FSunny.12 mph65%30.15 "Hg10 mi
11:00 AM72 °FSunny.15 mph65%30.18 "Hg10 mi
10:00 AM68 °FPassing clouds.10 mph83%30.18 "HgN/A
9:00 AM64 °FSunny.12 mph88%30.18 "Hg10 mi
8:00 AM57 °FSunny.5 mph100%30.18 "Hg10 mi
7:00 AM52 °FSunny.2 mph100%30.15 "Hg10 mi
6:00 AM52 °FClear.2 mph100%30.12 "Hg10 mi
5:00 AM54 °FClear.3 mph100%30.12 "Hg10 mi
4:00 AM55 °FClear.3 mph94%30.12 "Hg10 mi
3:00 AM55 °FClear.5 mph100%30.15 "Hg10 mi
2:00 AM55 °FClear.3 mph94%30.15 "Hg10 mi
1:00 AM57 °FClear.5 mph100%30.18 "Hg10 mi
Weather by CustomWeather, © 2014

See weather overviewHow to use our weather pages